Terminal Aerodrome Forecast
Issued by NWS

Home | Current Version | Previous Version | Text Only | Print | Product List | Glossary On
Versions: 1 2 3 4 5 6 7 8 9 10 11 12 13 14 15 16 17 18 19 20 21 22 23 24 25 26 27 28 29 30 31 32 33 34 35 36 37 38 39 40 41 42 43 44 45 46 47 48 49 50
000
FTUS43 KMKX 282224 AAA
TAFENW
TAF AMD
KENW 282224Z 2822/2918 15013KT P6SM BKN200
     FM290400 17012KT P6SM OVC100
     FM290700 18009KT 5SM BR OVC025
      TEMPO 2907/2911 3SM -FZDZPL OVC018
     FM291200 27006KT 3SM BR OVC008
     FM291400 31011G18KT 3SM BR OVC008
     FM291700 32018G25KT P6SM OVC015=

USA.gov is the U.S. government's official web portal to all federal, state and local government web resources and services.